Temp
-16 -16 -16 -16 -16 -16 -16 -15 -15 -16 -16 -16 -16 -16 -16 -16 -16 -17 -17 -17 -17 -17 -17 -17 -17 -17 -17 -17 -17 -17 -17 -16 -17 -17 -17 -17 -17 -17 -18 -17 -18 -18 -17 -18
-16 -16 -16 -16 -16 -16 -16 -16 -16 -16 -16 -16 -16 -16 -16 -16 -16 -17 -17 -17 -17 -17 -17 -17 -18 -17 -17 -17 -17 -17 -17 -17 -17 -17 -17 -17 -17 -17 -17 -17 -17 -18 -17 -17
-16 -16 -16 -16 -16 -16 -16 -16 -16 -16 -16 -16 -16 -16 -16 -16 -17 -16 -17 -17 -17 -17 -17 -18 -17 -17 -18 -18 -17 -17 -17 -17 -17 -17 -17 -17 -18 -17 -17 -17 -17 -17 -17 -17
-17 -17 -17 -17 -17 -16 -16 -16 -16 -16 -16 -17 -17 -16 -16 -17 -17 -17 -17 -17 -17 -17 -17 -17 -17 -18 -18 -18 -18 -18 -17 -17 -17 -17 -17 -17 -17 -17 -18 -16 -17 -16 -17 -16
-18 -17 -17 -17 -17 -17 -16 -17 -17 -17 -17 -17 -17 -17 -17 -17 -17 -17 -17 -17 -17 -18 -18 -18 -17 -18 -17 -18 -18 -18 -18 -17 -17 -17 -17 -17 -17 -17 -17 -17 -17 -17 -16 -17
-18 -18 -18 -17 -17 -17 -17 -17 -17 -17 -17 -17 -17 -17 -17 -17 -17 -17 -18 -17 -17 -18 -18 -18 -18 -18 -18 -18 -18 -18 -18 -18 -18 -17 -17 -17 -16 -17 -17 -17 -17 -17 -17 -17
-18 -18 -18 -17 -17 -17 -17 -17 -17 -17 -17 -18 -18 -18 -18 -18 -18 -18 -18 -18 -18 -18 -18 -18 -18 -18 -18 -18 -18 -18 -18 -19 -19 -18 -18 -16 -16 -17 -18 -17 -17 -17 -17 -17
-18 -18 -18 -18 -18 -18 -18 -18 -18 -18 -17 -18 -18 -18 -18 -18 -18 -19 -18 -19 -19 -19 -19 -19 -18 -18 -18 -18 -18 -18 -19 -18 -19 -19 -18 -17 -16 -17 -18 -18 -17 -17 -17 -17
-19 -18 -18 -18 -18 -18 -18 -19 -18 -19 -19 -19 -19 -19 -19 -19 -19 -19 -19 -19 -19 -19 -19 -20 -19 -18 -18 -18 -18 -18 -19 -19 -19 -18 -18 -18 -18 -18 -18 -19 -17 -18 -18 -18
-19 -19 -19 -19 -19 -20 -19 -20 -20 -20 -20 -19 -20 -20 -20 -20 -20 -20 -20 -20 -20 -21 -20 -20 -20 -19 -19 -19 -19 -19 -19 -19 -19 -19 -19 -17 -18 -19 -19 -19 -18 -19 -19 -18
-20 -20 -20 -20 -20 -20 -20 -20 -20 -20 -20 -20 -20 -20 -20 -21 -21 -21 -21 -21 -21 -21 -22 -22 -21 -21 -20 -20 -19 -19 -19 -20 -18 -19 -19 -17 -19 -19 -19 -19 -19 -19 -19 -19
-21 -21 -21 -21 -21 -21 -21 -21 -21 -21 -21 -21 -21 -21 -21 -22 -22 -23 -24 -24 -24 -23 -25 -25 -26 -25 -22 -20 -19 -19 -19 -19 -20 -19 -18 -19 -19 -20 -20 -20 -20 -20 -20 -20
-21 -21 -22 -22 -21 -21 -21 -21 -21 -22 -22 -22 -21 -22 -23 -25 -27 -28 -28 -27 -28 -28 -28 -27 -27 -26 -25 -22 -20 -19 -20 -20 -21 -21 -18 -18 -19 -19 -20 -20 -20 -21 -20 -20
-22 -22 -22 -22 -22 -22 -22 -22 -23 -24 -24 -25 -23 -25 -27 -27 -29 -30 -30 -29 -29 -29 -30 -29 -28 -27 -26 -25 -23 -21 -21 -21 -20 -19 -19 -19 -19 -20 -20 -21 -20 -20 -21 -21
-23 -23 -23 -23 -23 -23 -23 -23 -24 -27 -30 -29 -27 -26 -27 -29 -29 -29 -29 -29 -29 -30 -30 -29 -28 -28 -27 -25 -25 -23 -23 -22 -22 -20 -20 -20 -20 -21 -21 -21 -21 -21 -21 -21
-24 -24 -24 -24 -24 -25 -27 -25 -27 -30 -31 -31 -28 -26 -26 -29 -30 -30 -30 -30 -30 -30 -30 -30 -29 -28 -29 -28 -26 -25 -24 -24 -24 -22 -23 -20 -20 -21 -21 -21 -21 -21 -21 -21
-25 -25 -25 -26 -27 -29 -30 -29 -30 -30 -30 -30 -28 -26 -27 -29 -30 -30 -31 -31 -30 -31 -31 -30 -29 -29 -30 -29 -27 -24 -24 -25 -24 -24 -23 -22 -21 -21 -22 -22 -22 -22 -22 -21
-26 -27 -27 -28 -30 -31 -30 -30 -30 -31 -31 -30 -28 -27 -28 -30 -29 -29 -30 -30 -30 -30 -29 -29 -29 -29 -30 -30 -27 -25 -25 -25 -25 -25 -24 -23 -24 -22 -22 -22 -22 -22 -22 -22
-29 -29 -30 -30 -31 -31 -30 -29 -30 -31 -30 -29 -29 -29 -28 -28 -28 -29 -29 -29 -29 -29 -29 -29 -30 -29 -28 -27 -27 -26 -26 -26 -25 -25 -25 -23 -24 -23 -23 -23 -22 -22 -22 -22
-32 -32 -31 -31 -31 -31 -30 -30 -30 -30 -31 -30 -29 -30 -29 -29 -29 -29 -29 -29 -29 -28 -27 -28 -27 -27 -27 -27 -28 -28 -28 -27 -25 -26 -25 -25 -25 -23 -23 -23 -23 -22 -22 -22
-32 -32 -31 -31 -32 -31 -30 -30 -30 -30 -30 -30 -30 -30 -29 -29 -29 -29 -30 -29 -29 -28 -28 -28 -27 -26 -27 -29 -28 -28 -29 -29 -28 -26 -26 -26 -25 -24 -24 -24 -23 -23 -23 -22
-32 -32 -32 -32 -32 -33 -32 -31 -30 -31 -30 -30 -30 -30 -30 -30 -29 -29 -29 -28 -29 -28 -29 -28 -26 -27 -28 -29 -29 -28 -29 -29 -28 -27 -26 -25 -25 -25 -25 -23 -24 -23 -23 -22
-34 -34 -34 -33 -33 -33 -32 -31 -31 -30 -30 -30 -30 -30 -30 -30 -30 -29 -29 -29 -29 -28 -28 -28 -28 -28 -28 -28 -28 -28 -28 -28 -28 -27 -26 -26 -26 -25 -25 -24 -23 -23 -23 -22
-35 -35 -34 -34 -33 -32 -32 -31 -31 -30 -30 -30 -30 -29 -29 -29 -30 -30 -29 -29 -29 -28 -28 -29 -29 -29 -28 -28 -27 -27 -27 -28 -27 -27 -26 -26 -26 -25 -24 -24 -24 -23 -23 -23
-36 -36 -34 -33 -33 -32 -31 -30 -30 -30 -30 -29 -29 -29 -28 -29 -29 -30 -29 -29 -29 -28 -28 -28 -28 -28 -27 -27 -26 -27 -27 -26 -26 -27 -26 -26 -25 -24 -25 -24 -24 -24 -23 -24
-36 -35 -34 -33 -32 -32 -31 -30 -30 -29 -29 -29 -30 -29 -29 -29 -29 -29 -29 -29 -28 -28 -28 -28 -27 -27 -27 -26 -26 -25 -25 -25 -25 -25 -25 -24 -24 -24 -24 -24 -24 -24 -24 -24
-35 -34 -33 -32 -32 -31 -30 -30 -30 -30 -30 -30 -30 -29 -29 -29 -29 -29 -29 -28 -28 -28 -28 -27 -27 -26 -26 -25 -25 -25 -25 -25 -25 -25 -25 -25 -24 -23 -23 -24 -24 -24 -24 -24
Height
5738 5737 5736 5734 5733 5731 5730 5729 5727 5725 5725 5725 5722 5722 5720 5720 5718 5717 5712 5710 5710 5708 5708 5706 5705 5706 5704 5700 5698 5696 5693 5690 5688 5687 5683 5680 5676 5673 5670 5666 5664 5659 5656 5655
5729 5727 5725 5723 5722 5722 5720 5719 5717 5716 5714 5713 5712 5711 5711 5709 5707 5708 5706 5701 5700 5699 5698 5695 5695 5697 5697 5694 5692 5690 5688 5687 5684 5682 5681 5678 5675 5671 5668 5665 5662 5659 5655 5654
5717 5715 5712 5710 5709 5709 5708 5707 5706 5706 5703 5702 5702 5701 5700 5698 5696 5695 5694 5693 5692 5691 5688 5685 5684 5688 5685 5685 5685 5682 5680 5680 5679 5677 5674 5673 5671 5669 5666 5662 5660 5657 5655 5652
5703 5701 5700 5698 5697 5697 5697 5696 5695 5695 5694 5691 5691 5690 5690 5688 5684 5682 5681 5682 5680 5677 5676 5676 5678 5676 5674 5676 5676 5674 5671 5672 5671 5672 5668 5666 5665 5664 5661 5659 5658 5654 5654 5651
5691 5689 5688 5688 5686 5686 5686 5686 5686 5686 5684 5682 5681 5679 5678 5676 5674 5671 5671 5666 5668 5665 5665 5663 5665 5663 5663 5665 5666 5664 5663 5662 5662 5663 5662 5659 5660 5657 5655 5654 5652 5651 5649 5649
5680 5678 5677 5676 5675 5674 5673 5673 5673 5674 5675 5672 5670 5668 5665 5664 5660 5662 5656 5655 5652 5653 5651 5648 5649 5650 5651 5651 5652 5654 5652 5652 5651 5651 5654 5651 5654 5653 5649 5647 5646 5645 5645 5644
5668 5666 5665 5663 5662 5661 5659 5659 5658 5658 5659 5656 5654 5653 5650 5649 5646 5645 5647 5637 5633 5636 5629 5632 5633 5633 5636 5636 5636 5641 5642 5642 5640 5639 5641 5638 5647 5647 5644 5642 5640 5639 5638 5638
5655 5653 5651 5649 5646 5645 5642 5639 5639 5639 5642 5640 5639 5635 5633 5631 5630 5627 5625 5623 5618 5613 5612 5611 5613 5618 5618 5622 5622 5623 5628 5630 5629 5626 5628 5630 5635 5639 5637 5635 5636 5632 5632 5632
5641 5639 5636 5633 5630 5626 5626 5619 5617 5616 5620 5624 5617 5615 5611 5610 5608 5606 5604 5603 5598 5591 5589 5587 5589 5593 5600 5602 5605 5609 5611 5613 5617 5617 5614 5615 5626 5629 5631 5627 5630 5626 5626 5625
5625 5622 5620 5617 5613 5608 5607 5601 5594 5592 5596 5602 5594 5589 5586 5581 5578 5573 5577 5576 5576 5561 5565 5562 5567 5572 5578 5579 5584 5591 5592 5596 5599 5605 5602 5601 5613 5619 5619 5619 5626 5619 5619 5619
5609 5607 5604 5601 5596 5591 5586 5582 5570 5563 5563 5586 5564 5561 5557 5556 5550 5542 5543 5537 5542 5543 5539 5540 5544 5545 5552 5552 5566 5569 5572 5577 5583 5587 5588 5587 5610 5606 5607 5613 5611 5611 5611 5611
5593 5591 5587 5582 5576 5570 5560 5559 5547 5538 5532 5547 5539 5539 5529 5525 5519 5507 5500 5501 5505 5509 5512 5519 5522 5522 5524 5536 5542 5550 5552 5560 5564 5570 5579 5586 5588 5594 5596 5598 5601 5603 5603 5602
5577 5573 5568 5562 5557 5548 5538 5530 5525 5516 5509 5502 5509 5513 5501 5496 5486 5473 5466 5481 5483 5482 5487 5489 5495 5499 5506 5511 5521 5526 5530 5538 5539 5547 5565 5568 5573 5580 5584 5585 5587 5591 5592 5591
5558 5554 5549 5543 5535 5526 5515 5509 5503 5492 5476 5460 5478 5478 5478 5471 5458 5457 5453 5457 5460 5462 5465 5466 5471 5476 5483 5493 5499 5501 5513 5519 5526 5533 5544 5552 5557 5563 5571 5573 5573 5576 5578 5579
5539 5534 5527 5520 5512 5502 5491 5489 5487 5475 5453 5436 5439 5458 5463 5440 5439 5440 5440 5441 5444 5446 5449 5450 5456 5461 5463 5474 5475 5485 5501 5503 5507 5515 5523 5530 5541 5547 5553 5557 5559 5562 5565 5569
5518 5512 5505 5497 5489 5478 5466 5464 5476 5455 5437 5421 5424 5435 5437 5436 5432 5433 5433 5434 5433 5434 5437 5438 5438 5446 5446 5444 5449 5473 5480 5486 5493 5500 5506 5511 5520 5531 5537 5543 5546 5550 5554 5557
5497 5490 5482 5475 5468 5458 5451 5445 5443 5433 5423 5416 5415 5416 5422 5424 5424 5425 5426 5425 5425 5425 5426 5425 5430 5429 5428 5425 5425 5456 5461 5470 5475 5483 5490 5497 5508 5513 5521 5527 5534 5538 5542 5544
5474 5468 5462 5456 5448 5441 5439 5431 5425 5418 5411 5410 5407 5407 5415 5417 5415 5415 5416 5415 5414 5412 5413 5417 5416 5421 5414 5401 5419 5434 5445 5453 5457 5468 5477 5483 5491 5498 5504 5512 5518 5524 5528 5531
5453 5447 5442 5439 5433 5423 5420 5415 5410 5406 5404 5404 5402 5404 5402 5405 5406 5405 5404 5402 5398 5400 5400 5403 5400 5400 5392 5405 5411 5417 5426 5433 5445 5456 5460 5467 5475 5485 5493 5499 5504 5508 5514 5518
5435 5431 5427 5421 5414 5406 5403 5399 5399 5401 5401 5397 5399 5400 5400 5399 5399 5397 5395 5390 5386 5383 5386 5385 5384 5385 5393 5397 5398 5398 5401 5406 5415 5425 5437 5449 5459 5471 5477 5486 5493 5499 5503 5505
5421 5416 5413 5408 5401 5392 5391 5393 5395 5396 5397 5396 5396 5393 5395 5394 5392 5391 5387 5383 5380 5377 5377 5376 5376 5380 5388 5385 5385 5386 5386 5387 5391 5402 5421 5435 5448 5457 5467 5476 5483 5488 5491 5493
5407 5399 5393 5392 5387 5387 5389 5391 5392 5391 5392 5389 5389 5390 5388 5389 5388 5384 5380 5376 5374 5372 5372 5369 5370 5375 5373 5372 5372 5373 5372 5372 5374 5383 5401 5419 5433 5444 5457 5466 5472 5475 5479 5483
5394 5388 5384 5381 5381 5383 5384 5384 5384 5384 5384 5385 5385 5383 5382 5383 5382 5379 5376 5373 5369 5366 5364 5363 5365 5363 5362 5361 5360 5357 5356 5357 5362 5372 5388 5408 5420 5433 5444 5454 5460 5465 5468 5470
5383 5378 5375 5374 5376 5377 5377 5376 5376 5377 5377 5377 5377 5375 5373 5376 5373 5373 5371 5369 5368 5365 5363 5360 5358 5355 5355 5353 5351 5349 5348 5347 5350 5361 5376 5396 5414 5426 5436 5444 5450 5454 5457 5461
5374 5370 5366 5369 5370 5371 5369 5369 5369 5370 5369 5367 5366 5366 5366 5368 5367 5367 5366 5365 5364 5362 5359 5357 5354 5353 5352 5349 5347 5350 5350 5354 5359 5368 5381 5399 5412 5419 5425 5433 5437 5442 5446 5449
5365 5364 5363 5363 5364 5364 5363 5363 5363 5361 5359 5358 5356 5357 5359 5362 5363 5364 5363 5364 5362 5359 5355 5353 5351 5350 5348 5348 5349 5351 5354 5356 5368 5376 5386 5396 5404 5411 5418 5425 5430 5436 5439 5440
5359 5359 5359 5358 5359 5359 5359 5357 5356 5354 5353 5351 5351 5352 5355 5358 5359 5359 5359 5359 5359 5357 5355 5353 5350 5348 5347 5345 5349 5352 5356 5363 5370 5377 5386 5392 5399 5406 5414 5420 5424 5428 5430 5432
Wind_Speed
35 35 38 39 38 38 38 37 37 39 39 38 37 38 41 40 39 39 45 46 42 41 39 36 34 32 30 31 31 29 27 25 19 15 16 14 12 12 13 11 12 16 18 11
45 46 47 48 48 48 48 46 46 46 47 48 47 45 44 44 43 41 40 41 39 36 38 42 40 33 30 32 32 32 29 26 24 21 19 17 16 15 14 14 12 11 16 14
54 54 53 50 47 45 43 41 38 35 35 37 38 39 40 43 46 47 44 44 43 41 43 48 44 42 38 34 35 34 35 29 27 24 24 21 17 19 19 17 15 13 14 11
50 47 45 43 41 38 36 34 35 34 36 39 38 37 37 39 42 43 43 43 47 50 50 47 44 43 47 40 38 37 38 34 31 27 24 27 22 21 22 19 17 15 13 13
45 44 43 41 40 39 40 41 40 39 40 42 41 42 44 45 46 48 47 49 44 46 50 54 52 49 48 46 44 41 41 40 36 30 29 29 20 20 23 23 21 20 18 12
45 46 46 45 45 46 48 48 48 47 47 46 49 50 50 51 54 52 53 53 56 53 51 52 54 55 54 52 47 45 47 43 42 39 34 33 25 21 21 22 23 20 20 18
50 49 50 51 52 53 52 54 54 55 54 55 56 56 57 55 55 58 58 62 63 59 63 60 55 54 54 57 56 50 46 45 46 46 39 41 28 23 23 19 20 20 19 19
50 50 52 53 53 54 56 57 58 59 60 62 61 62 63 63 63 62 63 63 66 67 65 66 65 59 57 55 58 57 54 51 49 49 46 42 35 24 24 24 18 21 18 20
54 56 56 56 58 60 61 65 67 68 68 67 68 68 70 70 71 71 69 68 72 76 75 69 68 67 63 60 59 59 56 54 53 51 51 48 35 31 29 29 19 20 20 17
57 59 60 61 65 66 67 71 74 75 75 72 73 74 75 78 80 82 80 81 79 78 76 75 70 68 66 67 63 61 61 57 56 52 52 49 39 35 32 33 26 25 20 21
60 61 63 65 67 70 74 74 78 82 83 74 80 81 83 85 86 90 88 86 80 76 72 67 68 67 67 69 65 64 63 61 58 56 55 55 31 36 39 29 29 29 28 23
61 64 66 68 71 74 79 80 82 85 87 82 84 87 90 89 87 85 77 74 69 66 59 56 43 49 63 65 69 65 66 62 60 59 53 48 44 39 34 31 32 31 30 33
64 67 69 72 76 80 83 86 85 86 91 94 93 90 84 68 57 59 63 53 50 51 44 50 55 60 60 66 68 67 64 60 59 59 53 53 49 44 41 38 34 30 31 33
70 72 74 77 79 83 86 86 84 85 89 92 89 70 55 51 50 45 45 43 40 42 42 46 51 58 60 57 58 64 59 58 61 63 57 53 51 47 38 36 36 37 37 38
72 75 78 79 81 83 85 85 80 67 69 76 76 61 39 48 47 47 44 41 39 37 40 44 46 50 64 63 58 62 52 58 56 60 59 53 50 47 44 41 42 39 38 35
75 78 79 79 80 78 74 81 63 58 61 67 64 47 37 33 31 29 30 28 30 34 35 39 46 45 51 63 73 69 61 54 60 57 52 58 52 42 41 44 43 40 37 36
77 77 76 75 71 63 61 63 56 57 56 56 52 42 23 22 20 21 22 25 26 30 31 35 33 37 41 50 62 63 71 67 67 61 58 58 53 46 42 43 40 40 39 41
74 73 69 63 58 57 56 55 53 48 46 42 37 28 18 19 19 21 24 30 35 41 35 30 32 32 43 56 50 51 61 64 69 56 53 50 48 49 46 42 44 45 45 44
63 61 58 55 56 59 54 46 39 34 34 30 29 29 22 14 17 22 23 25 30 33 37 37 34 34 47 37 31 37 47 61 69 57 57 58 60 43 42 44 47 48 47 47
54 54 54 54 57 52 44 28 20 15 21 29 26 23 20 19 21 25 26 25 25 21 20 26 39 41 33 27 28 29 31 46 71 75 67 63 62 56 55 48 43 40 37 45
54 55 56 56 45 40 26 15 12 14 9 10 11 16 13 17 29 23 22 24 19 20 19 22 28 29 15 14 22 25 31 38 48 71 70 62 61 62 52 39 35 36 32 36
57 59 58 48 28 18 14 11 5 7 14 16 19 19 24 24 27 18 24 21 16 16 17 20 16 14 16 22 27 32 37 42 47 68 70 53 53 54 42 39 34 33 33 34
50 45 43 36 15 9 11 10 13 19 21 23 24 29 29 25 26 16 14 18 20 18 20 21 17 16 20 22 29 29 25 35 41 56 74 57 44 44 41 43 42 35 31 29
38 40 38 23 10 10 13 18 18 19 20 22 28 28 29 20 19 20 18 17 18 17 21 18 14 16 20 24 19 18 16 25 33 45 61 62 39 31 34 44 36 34 38 38
41 39 27 6 10 13 19 19 18 20 22 22 24 25 23 17 16 18 20 25 22 21 26 23 17 16 18 14 6 17 13 13 20 24 42 36 31 30 39 40 35 34 35 39
36 23 11 9 9 14 17 15 15 21 24 22 24 16 18 16 14 12 15 15 14 19 26 22 18 14 12 11 15 13 12 15 20 23 33 31 25 30 34 29 29 35 38 30
16 6 11 12 13 10 8 11 16 20 19 17 20 15 17 15 14 13 8 9 16 22 21 16 14 12 8 12 23 24 23 19 20 24 25 18 24 26 29 30 29 33 34 42
Wind_Direction
288 289 289 289 286 285 284 284 283 284 283 284 286 286 286 287 290 288 288 285 283 286 285 276 283 288 295 300 304 308 316 319 309 305 314 320 321 326 327 328 331 334 339 339
288 287 287 285 285 284 285 285 287 287 287 286 286 286 285 284 285 287 291 290 285 283 288 288 271 272 281 287 293 298 300 310 313 310 300 299 303 309 314 324 319 310 320 334
290 288 287 287 287 286 286 286 285 287 287 290 292 292 290 289 286 284 280 280 284 282 280 279 284 277 268 272 280 287 290 293 303 312 306 296 281 288 294 299 310 312 304 316
282 281 281 283 283 283 282 283 285 286 289 294 296 296 295 295 293 290 289 284 281 280 278 280 282 280 276 266 269 276 280 284 286 292 305 303 301 290 278 283 283 294 291 308
279 281 282 281 282 282 282 283 283 283 287 289 287 289 291 292 292 294 292 288 284 280 277 280 276 276 275 275 263 266 271 277 280 281 286 294 308 308 302 288 278 280 285 292
278 280 281 280 279 281 281 279 278 278 284 281 284 286 287 287 287 285 287 285 286 282 276 275 273 273 273 273 267 264 264 268 272 275 279 278 284 300 310 304 294 281 278 271
280 280 282 281 278 279 280 281 281 281 281 282 285 284 283 282 282 284 283 283 281 280 278 274 269 268 267 268 270 268 267 265 265 269 272 272 279 286 298 308 310 294 276 263
282 282 283 282 283 284 284 282 282 282 283 283 283 281 280 280 281 281 278 278 282 280 278 275 273 268 264 261 263 266 265 265 263 263 264 268 271 282 281 292 304 307 302 283
284 284 284 284 285 284 284 286 286 284 283 283 283 280 281 281 281 280 278 276 276 277 277 273 268 267 267 261 258 257 261 262 260 261 262 264 267 271 276 277 284 301 302 305
288 289 289 288 289 289 287 286 286 287 287 288 286 286 286 285 284 283 279 277 274 273 269 268 266 263 262 261 258 258 255 254 258 259 262 261 258 268 277 274 286 281 286 297
292 292 292 290 288 287 288 289 290 290 289 288 289 290 290 290 288 285 282 276 273 269 267 268 266 261 256 254 254 252 253 253 251 252 252 256 267 263 261 275 269 272 277 283
292 291 290 290 291 291 291 291 293 294 295 294 291 292 294 291 289 286 280 276 272 267 261 256 243 244 254 253 251 251 251 253 254 249 252 255 256 255 264 255 263 266 274 281
292 293 295 294 292 294 295 294 296 297 298 295 294 296 293 294 285 273 274 270 272 267 261 247 238 237 240 247 248 246 247 247 247 248 244 246 250 252 258 265 249 261 261 268
295 294 293 294 295 296 296 296 301 303 300 297 297 294 293 283 276 276 276 273 263 262 256 253 245 241 238 237 240 242 244 244 248 248 246 243 245 248 248 257 256 250 252 258
295 294 295 297 298 298 298 299 303 304 297 294 293 296 295 268 268 270 266 264 262 259 255 256 252 246 232 226 229 238 236 241 241 246 247 242 243 246 247 245 257 257 253 254
295 297 299 300 300 301 301 300 304 297 292 292 298 304 299 287 282 289 290 277 265 265 261 254 260 254 251 244 234 229 224 231 242 239 242 243 237 238 243 244 244 248 252 259
299 299 300 301 301 299 302 306 303 298 292 293 299 304 310 309 291 273 275 278 275 269 265 264 273 266 267 260 249 233 232 234 237 239 241 242 241 232 234 237 240 244 248 256
299 299 299 299 300 304 302 300 299 292 286 290 301 313 332 328 301 286 275 270 264 265 270 269 272 269 262 261 260 247 230 229 233 233 231 242 239 237 227 235 237 241 248 253
297 296 299 303 307 305 303 298 291 283 287 296 304 326 331 333 315 311 303 297 285 269 264 265 265 268 262 281 280 256 244 237 228 224 222 221 234 239 229 233 239 240 245 249
297 301 305 307 309 307 303 291 288 299 298 305 322 312 322 316 330 330 322 308 293 285 252 246 253 264 277 287 285 266 252 236 226 219 221 224 235 224 226 230 241 245 254 252
303 305 306 307 308 294 288 292 311 301 304 302 316 300 293 299 314 314 306 299 287 290 292 270 263 263 282 289 267 259 254 243 233 226 228 231 231 223 234 234 235 243 252 258
306 307 308 312 302 265 272 292 285 294 270 284 291 288 301 302 312 309 313 307 289 291 289 288 294 312 285 264 256 252 254 248 230 217 211 211 222 231 238 221 233 238 254 261
302 300 306 307 268 265 279 279 241 232 240 248 250 271 279 289 302 287 297 312 329 319 310 313 333 297 287 285 276 273 255 245 239 221 216 210 222 231 233 225 227 241 250 254
301 305 305 295 266 268 284 284 269 251 264 264 259 274 278 276 272 288 288 295 306 322 347 339 307 306 303 284 274 267 245 244 228 217 210 211 211 221 227 232 227 235 244 242
304 303 304 272 264 281 281 286 275 273 283 284 283 278 266 265 267 273 274 287 303 320 334 351 349 327 297 262 246 185 158 143 145 172 192 201 214 223 210 215 226 238 245 253
298 299 288 276 275 288 292 298 292 288 291 292 282 279 249 251 268 281 295 319 350 349 350 351 338 332 276 194 182 152 142 134 151 180 190 187 197 208 210 221 238 233 247 243
295 273 281 283 285 289 291 297 295 293 294 278 274 263 224 238 259 284 306 335 336 345 341 332 344 270 205 116 132 157 145 140 143 158 185 197 220 216 216 230 240 239 259 246